Погода в Барсуках

Россия / Калужская область     55°03′28″N   36°57′59″E
темп.,
°C
ветер,
м/с
пор.,
м/с
влажн.,
%
обл.,
%
осадки,
мм/ч
давл.,
гПа
погр.,
м
21 апреля, ср
ср2100:00+2всв3897100 0.2 1011444
03:00+1св3798100 1.8 1007352
06:00+1сз1299100 1.1 1004177
09:00+1з2595100 1.1 1005540
12:00+3зюз3789100 0.1 1007822
15:00+5зюз4782100 0.2 1008869
18:00+5юз2685100 0.1 1010298
21:00+4ююз3891100 0.1 1012265
22 апреля, чт
чт2200:00+3ююз389288 0.0 1012230
03:00+2ю399697 0.0 1013219
06:00+3ююз3119746 0.1 1014362
09:00+6ююз4108876 0.1 1015556
12:00+10ююз477799 0.1 1015885
15:00+12ююз4767100 0.5 10151362
18:00+10ю4107871 0.1 1015593
21:00+9ююв4128787 0.1 1015474
23 апреля, пт
пт2300:00+8ю4129144 0.1 1015393
03:00+7ю41390100 0.1 1014375
06:00+7ю4138856 0.1 1014424
09:00+11ю4127579 0.3 1014767
12:00+15ю61256100 0.6 10132018
15:00+14ююз61364100 2.4 10131933
18:00+9ссз1290100 1.2 1013228
21:00+7св1296100 3.8 1013120
24 апреля, сб
сб2400:00+7в2797100 2.7 1010271
03:00+7юз0298100 4.1 1007159
06:00+4зсз3397100 0.7 1007390
09:00+2з3698100 3.5 1007327
12:00+1зсз41298100 4.5 1007490
15:00+5зсз51084100 6.9 10071173
18:00+5зсз3779100 0.3 1007864
21:00+2зюз3108791 0.7 1008267
25 апреля, вс
вс2500:00+1зюз412895 0.1 1008451
03:000зюз4119329 0.1 1008476
06:00+1зюз41097100 0.0 1008603
09:00+2зюз4989100 0.3 10091151
12:00+5зюз5963100 0.1 10091871
15:00+7зюз5105744 0.4 10092040
18:00+5зюз596699 0.4 10091269
21:00+1юз310875 0.4 1010275